Weather in Anga

Russia / Irkutsk Oblast     53°59′00″N   106°11′09″E
temp.,
°C
wind,
m/s
gust,
m/s
humid.,
%
clouds,
%
prec.,
mm/h
press.,
hPa
HPBL,
m
9 march, tue
tue923:00−16e119052 0.0 102620
02:00−15ene229176 0.0 102420
05:00−16ene129192 0.0 102020
08:00−17ne118690 0.0 101920
11:00−9ssw117926 0.0 1017195
14:00−6sw128663 0.0 1018239
17:00−3wsw1191100 0.0 1018121
20:00−6sw239085 0.0 102127
10 march, wed
wed1023:00−7wnw51474100 0.6 1025589
02:00−15wnw118655 0.6 102920
05:00−18ssw01900 0.0 103120
08:00−18se11900 0.0 103220
11:00−11s128432 0.0 1030272
14:00−6sse137735 0.0 1026417
17:00−3s158245 0.0 1023519
20:00−10ene018645 0.0 102421
11 march, thu
thu1123:00−12se119143 0.0 102421
02:00−14sse119326 0.0 102421
05:00−15ese11930 0.0 102421
08:00−14ese11920 0.0 102320
11:00−6se11870 0.0 1021210
14:00−2sse13970 0.0 1018249
17:000s1310054 0.0 1016201
20:00−4ssw129869 0.0 101821
12 march, fri
fri1223:00−7sse1289100 0.0 101921
02:00−10se118989 0.0 101821
05:00−11ene1289100 0.0 101821
08:00−11wnw0089100 0.0 101721
11:00−5sw1188100 0.0 1018168
14:00−2sw1396100 0.1 1019307
17:000s119674 0.1 1018160
20:00−5sse129864 0.1 101821
13 march, sat
sat1323:00−8ese129686 0.0 101621
02:00−11ese119872 0.0 101221
05:00−10s0197100 0.0 101121
08:00−9se1196100 0.0 101123
11:00−5ese1191100 0.0 1010204
14:00−2n1293100 0.1 1006361
17:00−3n71092100 0.4 1006646
20:00−9nnw91787100 2.4 1012915